EW0370 Weather Reports


time (UTC)temp
C
wind
direction
speed
KPH
gust
KPH
rain 1hr
cm
rain 24hr
cm
rain mn
cm
humidity
%
barometer
mb
20260506015244 10 355 3.2 6.4 0.00 0.00 0.00 82 1012.2
20260506014744 10 2 4.8 8.0 0.00 0.00 0.00 82 1012.2
20260506014244 10 340 3.2 6.4 0.00 0.00 0.00 81 1012.0
20260506013745 10 258 1.6 3.2 0.00 0.00 0.00 81 1012.0
20260506013244 10 2 4.8 6.4 0.00 0.00 0.00 80 1011.8
20260506012746 10 350 3.2 6.4 0.00 0.00 0.00 80 1011.9
20260506012244 10 347 3.2 6.4 0.00 0.00 0.00 80 1011.9
20260506011743 10 343 1.6 1.6 0.00 0.00 0.00 80 1011.9
20260506011243 10 328 3.2 3.2 0.00 0.00 0.00 80 1011.7
20260506010743 10 348 4.8 4.8 0.00 0.00 0.00 80 1011.6
20260506010244 10 0 4.8 6.4 0.00 0.00 0.00 80 1011.4
20260506005744 10 13 1.6 3.2 0.00 0.00 0.00 80 1011.3
20260506005243 10 2 3.2 4.8 0.00 0.00 0.00 80 1011.2
20260506004743 10 2 3.2 4.8 0.00 0.00 0.00 80 1010.9
20260506004246 10 355 3.2 4.8 0.00 0.00 0.00 80 1010.7
20260506003745 10 24 4.8 6.4 0.00 0.00 0.00 79 1010.7
20260506003243 10 3 4.8 6.4 0.00 0.00 0.00 79 1010.7
20260506002746 10 350 3.2 3.2 0.00 0.00 0.00 78 1010.6
20260506002245 10 2 3.2 4.8 0.00 0.00 0.00 78 1010.7
20260506001745 10 4 3.2 3.2 0.00 0.00 0.00 78 1010.5
20260506001244 11 0 3.2 4.8 0.00 0.00 0.00 78 1010.4
20260506000743 11 24 3.2 4.8 0.00 0.00 0.00 77 1010.5
20260506000243 11 0 3.2 3.2 0.00 0.00 0.00 77 1010.6
20260505235743 11 0 4.8 6.4 0.00 0.00 0.00 76 1010.5
20260505235245 11 7 1.6 3.2 0.00 0.00 0.00 76 1010.3
20260505234743 11 355 4.8 6.4 0.00 0.00 0.00 76 1010.2
20260505234243 11 346 6.4 6.4 0.00 0.00 0.00 75 1010.2
20260505233743 11 1 4.8 4.8 0.00 0.00 0.00 75 1010.3
20260505233243 11 5 3.2 3.2 0.00 0.00 0.00 75 1010.6
20260505232743 11 2 3.2 4.8 0.00 0.00 0.00 74 1010.8
20260505232244 11 22 1.6 3.2 0.00 0.00 0.00 74 1010.8
20260505231744 11 8 1.6 3.2 0.00 0.00 0.00 74 1010.7
20260505231243 11 5 3.2 3.2 0.00 0.00 0.00 74 1010.5
20260505230745 11 334 3.2 6.4 0.00 0.00 0.00 74 1010.4
20260505230245 11 354 3.2 4.8 0.00 0.00 0.00 74 1010.2
20260505225743 11 353 1.6 3.2 0.00 0.00 0.00 74 1010.0
20260505225243 11 358 3.2 3.2 0.00 0.00 0.00 73 1010.2
20260505224743 11 14 3.2 6.4 0.00 0.00 0.00 74 1010.2
20260505224243 11 39 3.2 3.2 0.00 0.00 0.00 74 1010.1
20260505223745 11 28 4.8 6.4 0.00 0.00 0.00 74 1010.1
20260505223243 11 359 3.2 6.4 0.00 0.00 0.00 74 1010.1
20260505222745 11 1 3.2 6.4 0.00 0.00 0.00 74 1010.0
20260505222244 12 358 1.6 3.2 0.00 0.00 0.00 74 1010.1
20260505221743 12 50 1.6 3.2 0.00 0.00 0.00 74 1009.8
20260505221244 12 17 3.2 3.2 0.00 0.00 0.00 74 1009.6
20260505220743 12 21 3.2 3.2 0.00 0.00 0.00 74 1009.8
20260505220243 12 350 3.2 4.8 0.00 0.00 0.00 74 1009.7
20260505215745 12 354 3.2 4.8 0.00 0.00 0.00 74 1009.7
20260505215245 12 5 4.8 8.0 0.00 0.00 0.00 73 1009.7
20260505214744 12 18 6.4 9.7 0.00 0.00 0.00 73 1009.5
20260505214246 12 16 3.2 6.4 0.00 0.00 0.00 74 1009.1
20260505213748 12 12 6.4 9.7 0.00 0.00 0.00 73 1009.1
20260505213244 12 9 6.4 8.0 0.00 0.00 0.00 73 1009.0
20260505212743 12 354 4.8 6.4 0.00 0.00 0.00 73 1009.1
20260505212244 12 2 4.8 6.4 0.00 0.00 0.00 73 1009.2
20260505211744 12 356 4.8 4.8 0.00 0.00 0.00 73 1009.2
20260505211245 12 14 3.2 4.8 0.00 0.00 0.00 73 1009.1
20260505210743 12 357 4.8 8.0 0.00 0.00 0.00 73 1008.5
20260505210243 12 6 4.8 6.4 0.00 0.00 0.00 73 1009.1
20260505205744 12 349 3.2 4.8 0.00 0.00 0.00 74 1008.5
20260505205246 12 7 6.4 6.4 0.00 0.00 0.00 74 1008.8
20260505204743 12 8 4.8 6.4 0.00 0.00 0.00 75 1009.1
20260505204244 12 1 4.8 4.8 0.00 0.00 0.00 74 1009.7
20260505203743 12 19 4.8 4.8 0.00 0.00 0.00 73 1010.0
20260505203243 12 357 3.2 6.4 0.00 0.00 0.00 74 1009.5
20260505202746 12 14 1.6 3.2 0.00 0.00 0.00 74 1009.0
20260505202243 12 348 4.8 6.4 0.00 0.00 0.00 74 1009.0
20260505201743 12 351 3.2 4.8 0.00 0.00 0.00 75 1008.9
20260505201245 12 20 4.8 4.8 0.00 0.00 0.00 75 1008.6
20260505200745 12 352 3.2 4.8 0.00 0.00 0.00 76 1008.6
20260505200243 12 0 4.8 9.7 0.00 0.00 0.00 77 1008.8
20260505195745 12 355 6.4 6.4 0.00 0.00 0.00 76 1008.9
20260505195246 12 353 4.8 6.4 0.00 0.00 0.00 78 1008.6
20260505194745 12 11 6.4 9.7 0.00 0.00 0.00 78 1008.6
20260505194243 12 356 4.8 6.4 0.00 0.00 0.00 77 1008.8
20260505193744 12 359 3.2 4.8 0.00 0.00 0.00 77 1008.8
20260505193243 12 350 3.2 4.8 0.00 0.00 0.00 78 1008.8
20260505192745 12 336 3.2 4.8 0.00 0.00 0.00 78 1008.6
20260505192243 12 341 3.2 4.8 0.00 0.00 0.00 79 1008.8
20260505191745 12 355 3.2 4.8 0.00 0.00 0.00 80 1008.6
20260505191245 12 2 4.8 8.0 0.00 0.00 0.00 80 1008.5
20260505190744 12 349 3.2 4.8 0.00 0.00 0.00 80 1008.4
20260505190245 12 351 3.2 4.8 0.00 0.00 0.00 80 1008.5
20260505185743 12 0 4.8 8.0 0.00 0.00 0.00 81 1008.6
20260505185243 13 0 6.4 8.0 0.00 0.00 0.00 80 1008.6
20260505184744 13 6 3.2 4.8 0.00 0.00 0.00 81 1008.4
20260505184243 13 3 6.4 8.0 0.00 0.00 0.00 80 1008.4
20260505183744 13 345 4.8 6.4 0.00 0.00 0.00 79 1008.3
20260505183245 13 356 3.2 4.8 0.00 0.00 0.00 79 1008.2
20260505182743 13 0 6.4 6.4 0.00 0.00 0.00 79 1008.2
20260505182245 13 354 4.8 6.4 0.00 0.00 0.00 79 1008.1
20260505181743 13 342 3.2 4.8 0.00 0.00 0.00 79 1008.1
20260505181246 13 353 4.8 6.4 0.00 0.00 0.00 79 1007.9
20260505180745 13 7 6.4 8.0 0.00 0.00 0.00 79 1007.8
20260505180243 13 349 4.8 6.4 0.00 0.00 0.00 79 1007.8
20260505175744 13 0 4.8 6.4 0.00 0.00 0.00 79 1007.9
20260505175246 13 0 4.8 6.4 0.00 0.00 0.00 79 1007.7
20260505174745 13 345 3.2 3.2 0.00 0.00 0.00 79 1007.6
20260505174246 13 10 3.2 4.8 0.00 0.00 0.00 80 1007.6
20260505173746 13 359 3.2 4.8 0.00 0.00 0.00 79 1007.5
20260505173247 13 354 4.8 6.4 0.00 0.00 0.00 80 1007.4
20260505172743 13 353 4.8 4.8 0.00 0.00 0.00 80 1007.3
20260505172245 13 7 3.2 4.8 0.00 0.00 0.00 80 1007.3
20260505171745 13 352 6.4 8.0 0.00 0.00 0.00 81 1007.3
20260505171243 13 350 4.8 8.0 0.00 0.00 0.00 81 1007.2
20260505170746 13 358 4.8 6.4 0.00 0.00 0.00 81 1006.9
20260505170244 13 1 4.8 8.0 0.00 0.00 0.00 82 1007.0
20260505165744 13 349 4.8 8.0 0.00 0.00 0.00 82 1006.9
20260505165244 13 5 4.8 6.4 0.00 0.00 0.00 81 1006.8
20260505164743 13 0 6.4 8.0 0.00 0.00 0.00 82 1006.7
20260505164245 13 357 4.8 6.4 0.00 0.00 0.00 83 1006.6
20260505163743 14 7 6.4 9.7 0.00 0.00 0.00 83 1006.4
20260505163244 14 5 4.8 4.8 0.00 0.00 0.00 83 1006.3
20260505162744 14 349 4.8 6.4 0.00 0.00 0.00 83 1006.2
20260505162245 14 357 6.4 8.0 0.00 0.00 0.00 83 1006.0
20260505161745 14 8 3.2 4.8 0.00 0.00 0.00 82 1005.6
20260505161245 15 356 6.4 6.4 0.00 0.00 0.00 82 1005.6
20260505160743 15 351 3.2 6.4 0.00 0.00 0.00 82 1005.4
20260505160246 15 335 3.2 3.2 0.00 0.00 0.00 82 1005.1
20260505153243 16 354 3.2 4.8 0.00 0.00 0.00 83 1004.5
20260505152745 16 353 3.2 6.4 0.00 0.00 0.00 83 1004.5
20260505152245 17 1 4.8 8.0 0.00 0.00 0.00 82 1004.3
20260505151744 17 358 4.8 8.0 0.00 0.00 0.00 82 1004.2
20260505151244 18 6 3.2 4.8 0.00 0.00 0.00 81 1003.9
20260505150745 19 1 4.8 8.0 0.00 0.00 0.00 79 1003.7
20260505150245 20 7 4.8 4.8 0.00 0.00 0.00 83 1003.5
20260505140249 20 32 1.6 3.2 0.00 0.00 0.00 84 1002.2
20260505130245 21 18 1.6 1.6 0.00 0.00 0.00 80 1002.0
20260505124747 21 10 1.6 1.6 0.00 0.00 0.00 77 1002.0
20260505124245 21 20 1.6 1.6 0.00 0.00 0.00 77 1001.8
20260505123745 21 14 1.6 1.6 0.00 0.00 0.00 77 1001.8
20260505123246 22 18 1.6 1.6 0.00 0.00 0.00 77 1001.8
20260505122745 22 7 0.0 1.6 0.00 0.00 0.00 75 1001.8
20260505122243 22 0 0.0 0.0 0.00 0.00 0.00 75 1001.6
20260505121746 22 0 0.0 0.0 0.00 0.00 0.00 75 1001.6
20260505121245 22 0 0.0 0.0 0.00 0.00 0.00 75 1001.4
20260505120746 22 0 0.0 0.0 0.00 0.00 0.00 75 1001.4
20260505120245 22 157 0.0 1.6 0.00 0.00 0.00 74 1001.3
20260505115745 22 0 0.0 0.0 0.00 0.00 0.00 74 1001.4
20260505115243 22 55 0.0 0.0 0.00 0.00 0.00 73 1001.3
20260505114746 22 0 0.0 0.0 0.00 0.00 0.00 73 1001.2
20260505114245 22 138 0.0 0.0 0.00 0.00 0.00 73 1000.9
20260505113744 22 94 0.0 1.6 0.00 0.00 0.00 72 1000.9
20260505113244 22 0 0.0 0.0 0.00 0.00 0.00 71 1000.5
20260505112744 22 14 0.0 0.0 0.00 0.00 0.00 72 1000.2
20260505112245 22 193 0.0 1.6 0.00 0.00 0.00 72 999.9
20260505111746 22 148 1.6 3.2 0.00 0.00 0.00 72 999.9
20260505111245 22 148 1.6 3.2 0.00 0.00 0.00 71 999.9
20260505110743 22 158 0.0 0.0 0.00 0.00 0.00 72 999.9
20260505110245 22 323 0.0 1.6 0.00 0.00 0.00 71 999.9
20260505101743 22 155 3.2 6.4 0.00 0.00 0.00 72 999.1
20260505101244 22 158 1.6 4.8 0.00 0.00 0.00 72 999.1
20260505100746 22 152 4.8 6.4 0.00 0.00 0.00 72 999.1
20260505100244 22 156 3.2 6.4 0.00 0.00 0.00 72 999.1
20260505095743 23 156 4.8 8.0 0.00 0.00 0.00 72 999.1
20260505095243 23 139 6.4 11.3 0.00 0.00 0.00 72 999.1
20260505094744 23 125 1.6 1.6 0.00 0.00 0.00 72 999.1
20260505094244 23 153 4.8 8.0 0.00 0.00 0.00 72 999.0
20260505093745 23 154 3.2 4.8 0.00 0.00 0.00 72 999.0
20260505093246 23 166 3.2 6.4 0.00 0.00 0.00 72 999.0
20260505092744 23 153 3.2 9.7 0.00 0.00 0.00 72 999.0
20260505092243 23 166 6.4 11.3 0.00 0.00 0.00 72 998.9
20260505091743 23 151 4.8 6.4 0.00 0.00 0.00 72 999.0
20260505091244 23 164 4.8 9.7 0.00 0.00 0.00 72 999.1
20260505090744 23 158 6.4 11.3 0.00 0.00 0.00 72 999.2
20260505090244 23 103 3.2 4.8 0.00 0.00 0.00 72 999.2
20260505085744 23 140 1.6 3.2 0.00 0.00 0.00 72 999.3
20260505085244 23 146 6.4 9.7 0.00 0.00 0.00 72 999.3
20260505084743 23 137 3.2 4.8 0.00 0.00 0.00 72 999.3
20260505084243 23 172 0.0 1.6 0.00 0.00 0.00 72 999.3
20260505083746 23 131 1.6 3.2 0.00 0.00 0.00 72 999.4
20260505083244 23 143 6.4 11.3 0.00 0.00 0.00 72 999.4
20260505082743 23 159 4.8 8.0 0.00 0.00 0.00 72 999.4
20260505082244 23 145 3.2 6.4 0.00 0.00 0.00 72 999.5
20260505081745 23 158 6.4 9.7 0.00 0.00 0.00 72 999.7
20260505081245 23 144 1.6 3.2 0.00 0.00 0.00 72 999.6
20260505080743 23 161 6.4 12.9 0.00 0.00 0.00 72 999.6
20260505080243 23 149 3.2 9.7 0.00 0.00 0.00 72 999.6
20260505075744 23 174 4.8 6.4 0.00 0.00 0.00 72 999.7
20260505075243 23 165 3.2 6.4 0.00 0.00 0.00 72 999.7
20260505074743 23 152 6.4 14.5 0.00 0.00 0.00 72 999.8
20260505074243 23 158 6.4 9.7 0.00 0.00 0.00 72 999.8
20260505073744 23 177 3.2 8.0 0.00 0.00 0.00 72 999.8
20260505073243 23 168 4.8 11.3 0.00 0.00 0.00 72 999.9
20260505072743 23 153 6.4 12.9 0.00 0.00 0.00 72 999.9
20260505072244 23 148 3.2 6.4 0.00 0.00 0.00 72 1000.0
20260505071743 23 126 3.2 6.4 0.00 0.00 0.00 72 1000.1
20260505071243 23 157 6.4 11.3 0.00 0.00 0.00 72 1000.1
20260505070743 23 161 6.4 8.0 0.00 0.00 0.00 72 1000.2
20260505070243 23 167 6.4 8.0 0.00 0.00 0.00 72 1000.2
20260505065743 23 177 4.8 6.4 0.00 0.00 0.00 72 1000.4
20260505065243 23 163 4.8 11.3 0.00 0.00 0.00 72 1000.4
20260505064743 23 156 4.8 9.7 0.00 0.00 0.00 72 1000.5
20260505064244 23 149 4.8 11.3 0.00 0.00 0.00 71 1000.6
20260505063744 23 145 3.2 6.4 0.00 0.00 0.00 71 1000.5
20260505063243 23 166 6.4 14.5 0.00 0.00 0.00 71 1000.5
20260505062743 23 178 3.2 8.0 0.00 0.00 0.00 72 1000.7
20260505062243 23 149 3.2 8.0 0.00 0.00 0.00 71 1000.7
20260505061743 23 162 6.4 9.7 0.00 0.00 0.00 71 1000.8
20260505061245 23 168 8.0 12.9 0.00 0.00 0.00 71 1000.8
20260505060743 23 145 3.2 9.7 0.00 0.00 0.00 71 1000.8
20260505060243 23 160 4.8 12.9 0.00 0.00 0.00 71 1000.9
20260505055744 23 152 3.2 4.8 0.00 0.00 0.00 71 1000.9
20260505055248 23 164 8.0 12.9 0.00 0.00 0.00 71 1001.0
20260505054744 23 149 4.8 9.7 0.00 0.00 0.00 71 1001.0
20260505054244 23 156 3.2 6.4 0.00 0.00 0.00 71 1001.0
20260505053743 23 135 4.8 9.7 0.00 0.00 0.00 71 1001.1
20260505053243 23 154 6.4 11.3 0.00 0.00 0.00 71 1000.9
20260505052743 23 151 6.4 9.7 0.00 0.00 0.00 70 1001.2
20260505052244 23 153 8.0 16.1 0.00 0.00 0.00 70 1001.1
20260505051746 23 150 6.4 12.9 0.00 0.00 0.00 70 1001.1
20260505051244 23 130 3.2 9.7 0.00 0.00 0.00 70 1001.1
20260505050744 23 155 4.8 6.4 0.00 0.00 0.00 70 1001.2
20260505050244 23 164 8.0 16.1 0.00 0.00 0.00 70 1001.3
20260505041744 23 158 6.4 14.5 0.00 0.00 0.00 69 1001.7
20260505041244 23 152 8.0 14.5 0.00 0.00 0.00 69 1001.7
20260505040743 24 120 3.2 6.4 0.00 0.00 0.00 69 1001.7
20260505040244 24 154 6.4 11.3 0.00 0.00 0.00 68 1001.7
20260505035743 24 155 6.4 14.5 0.00 0.00 0.00 68 1001.7
20260505035244 24 162 4.8 9.7 0.00 0.00 0.00 68 1001.7
20260505034743 24 69 3.2 4.8 0.00 0.00 0.00 68 1001.7
20260505034244 24 147 6.4 14.5 0.00 0.00 0.00 68 1001.7
20260505033744 24 163 9.7 19.3 0.00 0.00 0.00 67 1001.6
20260505033243 24 143 3.2 9.7 0.00 0.00 0.00 67 1001.8
20260505032743 24 151 9.7 14.5 0.00 0.00 0.00 67 1001.6
20260505031757 24 126 4.8 8.0 0.00 0.00 0.00 66 1001.6
20260505031243 25 148 6.4 19.3 0.00 0.00 0.00 66 1001.5
20260505030743 25 151 6.4 11.3 0.00 0.00 0.00 66 1001.4
20260505030243 25 34 3.2 9.7 0.00 0.00 0.00 66 1001.4
20260505025743 25 145 3.2 16.1 0.00 0.00 0.00 65 1001.4
20260505025244 25 144 4.8 9.7 0.00 0.00 0.00 65 1001.2
20260505024744 25 129 3.2 9.7 0.00 0.00 0.00 65 1001.1
20260505024243 25 164 9.7 20.9 0.00 0.00 0.00 65 1001.0
20260505023743 25 128 4.8 8.0 0.00 0.00 0.00 64 1001.1
20260505023244 25 155 11.3 24.1 0.00 0.00 0.00 64 1001.2
20260505022745 25 156 8.0 17.7 0.00 0.00 0.00 64 1001.1
20260505022244 25 147 6.4 14.5 0.00 0.00 0.00 64 1001.0
20260505021744 25 154 6.4 17.7 0.00 0.00 0.00 63 1001.0
20260505021243 25 146 6.4 17.7 0.00 0.00 0.00 63 1000.8
20260505020744 25 156 11.3 24.1 0.00 0.00 0.00 63 1000.8
20260505020244 25 153 9.7 20.9 0.00 0.00 0.00 63 1000.8
20260505015745 26 161 9.7 19.3 0.00 0.00 0.00 62 1001.0